Weather History for Indian Springs, NV

Change the Weather History Date:

Saturday, November 10, 2012

  Actual Average (KDRA) Record (KDRA)
Temperature  
Mean Temperature 41 °F -  
Max Temperature 50 °F 61 °F 75 °F (1996)
Min Temperature 32 °F 39 °F 30 °F (1998)
Degree Days  
Heating Degree Days 24    
Moisture  
Dew Point 22 °F    
Average Humidity 50    
Maximum Humidity 75    
Minimum Humidity 26    
Precipitation  
Precipitation 0.00 in - - ()
Sea Level Pressure  
Sea Level Pressure 29.95 in    
Wind  
Wind Speed 9 mph (West)    
Max Wind Speed 26 mph    
Max Gust Speed 31 mph    
Visibility 10 miles    
Events      
Averages and records for this station are not official NWS values.
T = Trace of Precipitation, MM = Missing Value Source: NWS Daily Summary

Daily Weather History Graph

Daily Weather History Graph

Search for Another Location

Airport:

Trip Planner

Search our weather history database for the weather conditions in past years. The results will help you decide how hot, cold, wet, or windy it might be!

Date:

Astronomy

Nov. 10, 2012 Rise Set
Actual Time 6:15 AM PST 4:37 PM PST
Civil Twilight 5:48 AM PST 5:04 PM PST
Nautical Twilight 5:17 AM PST 5:35 PM PST
Astronomical Twilight 4:47 AM PST 6:05 PM PST
Moon 2:31 AM PST (11/10) 2:22 PM PST (11/10)
Length of Visible Light 11h 15m
Length of Day
10h 21m
Waning Crescent, 13% of the Moon is Illuminated
Nov 10
Waning Crescent
Nov 13
New
Nov 20
First Quarter
Nov 28
Full
Dec 6
Last Quarter

Hourly Weather History & Observations

Time (PST) Temp. Windchill Dew Point Humidity Pressure Visibility Wind Dir Wind Speed Gust Speed Precip Events Conditions
12:58 AM 37.6 °F 29.6 °F 30.4 °F 75% 29.80 in 10.0 mi WSW 12.7 mph - N/A   Clear
1:58 AM 37.4 °F 34.9 °F 29.3 °F 73% 29.82 in 10.0 mi Variable 3.5 mph - N/A   Clear
2:58 AM 37.0 °F 34.5 °F 28.6 °F 71% 29.83 in 10.0 mi Variable 3.5 mph - N/A   Clear
3:58 AM 34.9 °F 27.1 °F 25.7 °F 69% 29.84 in 10.0 mi WSW 10.4 mph - N/A   Clear
4:58 AM 34.0 °F 28.8 °F 25.5 °F 71% 29.86 in 10.0 mi West 5.8 mph - N/A   Clear
5:58 AM 32.5 °F 29.3 °F 25.3 °F 75% 29.88 in 10.0 mi SW 3.5 mph - N/A   Clear
6:58 AM 33.3 °F 27.9 °F 24.3 °F 70% 29.90 in 10.0 mi SW 5.8 mph - N/A   Clear
7:58 AM 37.9 °F - 25.7 °F 61% 29.93 in 10.0 mi WSW 2.3 mph - N/A   Clear
8:59 AM 40.8 °F - 24.1 °F 51% 29.94 in 10.0 mi WNW 1.2 mph - N/A   Scattered Clouds
9:58 AM 43.3 °F - 19.9 °F 39% 29.95 in 10.0 mi Variable 1.2 mph - N/A   Clear
10:58 AM 46.2 °F 44.1 °F 17.8 °F 32% 29.95 in 10.0 mi NNW 4.6 mph - N/A   Clear
11:58 AM 47.8 °F - 15.3 °F 27% 29.93 in 10.0 mi WSW 12.7 mph - N/A   Partly Cloudy
12:57 PM 50.0 °F - 15.8 °F 26% 29.92 in 10.0 mi WNW 12.7 mph - N/A   Partly Cloudy
12:58 PM 49.3 °F - 16.2 °F 27% 29.92 in 10.0 mi NW 11.5 mph - N/A   Partly Cloudy
1:58 PM 49.3 °F - 15.6 °F 26% 29.91 in 10.0 mi WSW 10.4 mph - N/A   Scattered Clouds
2:23 PM 50.0 °F - 15.8 °F 26% 29.92 in 10.0 mi WNW 23.0 mph 26.5 mph N/A   Mostly Cloudy
2:58 PM 47.3 °F - 18.7 °F 32% 29.94 in 10.0 mi NW 24.2 mph 29.9 mph N/A   Overcast
3:58 PM 46.8 °F - 18.1 °F 32% 29.95 in 10.0 mi NNW 26.5 mph 31.1 mph N/A   Mostly Cloudy
4:58 PM 41.4 °F 31.9 °F 26.4 °F 55% 29.99 in 10.0 mi NNW 21.9 mph 25.3 mph N/A   Overcast
5:04 PM 39.2 °F 30.2 °F 28.4 °F 65% 29.99 in 10.0 mi North 17.3 mph 25.3 mph N/A   Light Drizzle
5:19 PM 39.2 °F 33.0 °F 28.4 °F 65% 29.99 in 10.0 mi NE 9.2 mph - N/A   Overcast
5:58 PM 39.7 °F 36.5 °F 26.6 °F 59% 30.01 in 10.0 mi South 4.6 mph - 0.00 in   Partly Cloudy
6:58 PM 39.4 °F 34.5 °F 26.8 °F 61% 30.03 in 10.0 mi West 6.9 mph - N/A   Scattered Clouds
7:58 PM 41.0 °F 35.2 °F 23.4 °F 50% 30.04 in 10.0 mi SW 9.2 mph - N/A   Clear
8:58 PM 39.6 °F 34.0 °F 21.4 °F 48% 30.07 in 10.0 mi WSW 8.1 mph - N/A   Clear
9:58 PM 36.0 °F 32.1 °F 19.2 °F 51% 30.08 in 10.0 mi West 4.6 mph - N/A   Clear
10:58 PM 38.7 °F 31.8 °F 15.3 °F 39% 30.10 in 10.0 mi WSW 10.4 mph - N/A   Clear
11:58 PM 38.5 °F 32.7 °F 14.0 °F 37% 30.14 in 10.0 mi West 8.1 mph - N/A   Clear